Location: Riverside Cemetery
(38.3047°N, 99.7773°W)
Time: 16:08:21
(UTC+00:00)

Meteor 1-4 Rocket - Pass Details

Date: 19 September 2020
Orbit: 450 x 501 km, 81.2° (Epoch: 22 October)

Event Time Altitude Azimuth Distance (km) Brightness Sun altitude
Exits shadow 11:43:30 12° 254° (WSW) 1,463 4.3 -8.9°
Maximum altitude 11:45:13 16° 287° (WNW) 1,265 4.1 -8.5°
Drops below altitude 10° 11:47:27 10° 328° (NNW) 1,599 4.9 -8.1°
Sets 11:50:10 0° 350° (N) 2,487 6.2 -7.6°
